Location: Namasale
(1.5000°N, 32.6167°E)
Time: 22:43:40
(UTC+00:00)

Tiros 1 - Pass Details

Date: 27 April 2021
Orbit: 630 x 664 km, 48.4° (Epoch: 07 May)

Event Time Altitude Azimuth Distance (km) Brightness Sun altitude
Exits shadow 00:59:12 12° 62° (ENE) 1,893 10.2 -40.0°
Drops below altitude 10° 00:59:39 10° 60° (ENE) 2,053 10.4 -39.9°
Sets 01:02:06 0° 52° (NE) 2,957 11.4 -39.4°
